Fairbanks Ft. Wainwright, AK

12:39 AM AKDT on August 24, 2017 (GMT -0800)
Ladd Army Air Field

Weather History for PAFB - July, 2013

Change the Weather History Date:

Tuesday, July 2, 2013

  Actual Average Record
Temperature  
Mean Temperature 60 °F -  
Max Temperature 71 °F 70 °F 82 °F (1997)
Min Temperature 50 °F 54 °F 48 °F (1996)
Degree Days  
Heating Degree Days 4    
Growing Degree Days 10 (Base 50)    
Moisture  
Dew Point 44 °F    
Average Humidity 60    
Maximum Humidity 86    
Minimum Humidity 29    
Precipitation  
Precipitation 0.04 in - - ()
Sea Level Pressure  
Sea Level Pressure 29.61 in    
Wind  
Wind Speed 3 mph (WSW)    
Max Wind Speed 17 mph    
Max Gust Speed 25 mph    
Visibility 9 miles    
Events Rain    
Averages and records for this station are not official NWS values.
T = Trace of Precipitation, MM = Missing Value Source: NWS Daily Summary

Daily Weather History Graph

Daily Weather History Graph

Search for Another Location

Airport or City:

Trip Planner

Search our weather history database for the weather conditions in past years. The results will help you decide how hot, cold, wet, or windy it might be!

Date:

Astronomy

Jul. 02, 2013 Rise Set
Actual Time 3:13 AM AKDT 12:33 AM AKDT
Civil Twilight Sun does not set Sun does not set
Nautical Twilight Sun does not set Sun does not set
Astronomical Twilight Sun does not set Sun does not set
Moon 1:10 AM AKDT (7/2) 6:26 PM AKDT (7/2)
Length of Visible Light 24h 00m
Length of Day
21h 19m
Waning Crescent, 25% of the Moon is Illuminated
Jul 2
Waning Crescent
Jul 7
New
Jul 15
First Quarter
Jul 22
Full
Jul 29
Last Quarter

Hourly Weather History & Observations

Time (AKDT) Temp. Dew Point Humidity Pressure Visibility Wind Dir Wind Speed Gust Speed Precip Events Conditions
12:56 AM 55.9 °F 48.0 °F 75% 29.54 in 10.0 mi Calm Calm - N/A   Mostly Cloudy
1:56 AM 50.0 °F 46.0 °F 86% 29.55 in 10.0 mi Calm Calm - N/A   Clear
2:56 AM 52.0 °F 46.0 °F 80% 29.57 in 10.0 mi Calm Calm - N/A   Overcast
3:56 AM 51.1 °F 46.9 °F 86% 29.56 in 10.0 mi East 5.8 mph - N/A   Overcast
4:56 AM 50.0 °F 46.0 °F 86% 29.57 in 10.0 mi East 10.4 mph - 0.03 in   Overcast
5:56 AM 50.0 °F 46.0 °F 86% 29.57 in 10.0 mi Calm Calm - 0.01 in   Overcast
6:08 AM 51.8 °F 46.4 °F 82% 29.56 in 13.0 mi Calm Calm - N/A   Mostly Cloudy
6:55 AM 51.8 °F 46.4 °F 82% 29.56 in 13.0 mi Calm Calm - N/A   Mostly Cloudy
7:55 AM 55.4 °F 48.2 °F 77% 29.58 in 25.0 mi Calm Calm - N/A   Mostly Cloudy
8:55 AM 57.2 °F 48.2 °F 72% 29.59 in 25.0 mi Calm Calm - N/A   Mostly Cloudy
9:55 AM 60.8 °F 44.6 °F 55% 29.58 in 13.0 mi Calm Calm - N/A   Mostly Cloudy
10:55 AM 62.6 °F 44.6 °F 52% 29.59 in 13.0 mi West 6.9 mph - N/A   Mostly Cloudy
11:55 AM 64.4 °F 42.8 °F 45% 29.60 in 5.0 mi NW 5.8 mph - N/A   Smoke
12:20 PM 64.4 °F 41.0 °F 42% 29.61 in 3.0 mi Calm Calm - N/A   Smoke
12:55 PM 66.2 °F 39.2 °F 37% 29.60 in 3.0 mi Calm Calm - N/A   Smoke
1:55 PM 68.0 °F 39.2 °F 35% 29.60 in 7.0 mi SW 6.9 mph - N/A   Mostly Cloudy
2:54 PM 69.8 °F 37.4 °F 31% 29.61 in 10.0 mi Variable 3.5 mph - N/A   Mostly Cloudy
3:55 PM 69.8 °F 37.4 °F 31% 29.61 in 10.0 mi Variable 5.8 mph - N/A   Mostly Cloudy
4:55 PM 71.6 °F 37.4 °F 29% 29.61 in 10.0 mi West 11.5 mph 20.7 mph N/A   Mostly Cloudy
5:55 PM 71.6 °F 37.4 °F 29% 29.62 in 10.0 mi West 13.8 mph 19.6 mph N/A   Mostly Cloudy
6:55 PM 68.0 °F 42.8 °F 40% 29.64 in 7.0 mi SSE 11.5 mph 18.4 mph N/A   Mostly Cloudy
7:00 PM 64.4 °F 48.2 °F 56% 29.62 in 7.0 mi SE 17.3 mph 25.3 mph N/A Rain Light Rain Showers
7:55 PM 62.6 °F 46.4 °F 55% 29.66 in 7.0 mi North 8.1 mph - N/A   Mostly Cloudy
8:10 PM 60.8 °F 48.2 °F 63% 29.66 in 6.0 mi WNW 11.5 mph 18.4 mph N/A Rain Light Rain Showers
8:55 PM 60.8 °F 48.2 °F 63% 29.67 in 7.0 mi Variable 5.8 mph - N/A   Mostly Cloudy
9:55 PM 62.6 °F 41.0 °F 45% 29.69 in 7.0 mi Variable 4.6 mph - N/A   Mostly Cloudy
10:56 PM 59.0 °F 48.0 °F 67% 29.70 in 10.0 mi Calm Calm - 0.00 in   Partly Cloudy
11:56 PM 55.0 °F 51.1 °F 86% 29.73 in 10.0 mi SSW 4.6 mph - N/A   Clear